Weather History for Chester, SC

Change the Weather History Date:

Wednesday, February 12, 2014

  Actual Average (KUZA) Record (KUZA)
Temperature  
Mean Temperature 30 °F -  
Max Temperature 32 °F 54 °F 72 °F (1961)
Min Temperature 28 °F 32 °F 14 °F (1955)
Degree Days  
Heating Degree Days 35    
Moisture  
Dew Point 28 °F    
Average Humidity 93    
Maximum Humidity 100    
Minimum Humidity 69    
Precipitation  
Precipitation 0.56 in - - ()
Sea Level Pressure  
Sea Level Pressure 30.16 in    
Wind  
Wind Speed 10 mph (NE)    
Max Wind Speed 17 mph    
Max Gust Speed 28 mph    
Visibility 4 miles    
Events Rain , Snow    
Averages and records for this station are not official NWS values.
T = Trace of Precipitation, MM = Missing Value Source: NWS Daily Summary

Daily Weather History Graph

Daily Weather History Graph

Search for Another Location

Airport:

Trip Planner

Search our weather history database for the weather conditions in past years. The results will help you decide how hot, cold, wet, or windy it might be!

Date:

Astronomy

Feb. 12, 2014 Rise Set
Actual Time 7:13 AM EST 6:04 PM EST
Civil Twilight 6:47 AM EST 6:30 PM EST
Nautical Twilight 6:17 AM EST 7:00 PM EST
Astronomical Twilight 5:48 AM EST 7:30 PM EST
Moon 4:19 PM EST (2/12) 5:27 AM EST (2/12)
Length of Visible Light 11h 43m
Length of Day
10h 51m
Waxing Gibbous, 95% of the Moon is Illuminated
Feb 12
Waxing Gibbous
Feb 14
Full
Feb 22
Last Quarter
Mar 1
New
Mar 8
First Quarter

Hourly Weather History & Observations

Time (EST) Temp. Windchill Dew Point Humidity Pressure Visibility Wind Dir Wind Speed Gust Speed Precip Events Conditions
12:15 AM 32.0 °F 26.4 °F 32.0 °F 100% 30.34 in 5.0 mi ENE 5.8 mph - N/A   Mostly Cloudy
12:35 AM 32.0 °F 26.4 °F 32.0 °F 100% 30.34 in 5.0 mi NE 5.8 mph - N/A   Mostly Cloudy
12:55 AM 32.0 °F 27.5 °F 32.0 °F 100% 30.34 in 5.0 mi NE 4.6 mph - N/A   Scattered Clouds
1:15 AM 32.0 °F 27.5 °F 32.0 °F 100% 30.35 in 7.0 mi ENE 4.6 mph - N/A   Mostly Cloudy
1:35 AM 32.0 °F 26.4 °F 30.2 °F 93% 30.36 in 10.0 mi NE 5.8 mph - N/A   Overcast
1:55 AM 32.0 °F 26.4 °F 32.0 °F 100% 30.34 in 10.0 mi NE 5.8 mph - N/A   Overcast
2:15 AM 32.0 °F 25.6 °F 30.2 °F 93% 30.34 in 10.0 mi NE 6.9 mph - N/A   Overcast
2:35 AM 32.0 °F 24.2 °F 30.2 °F 93% 30.34 in 7.0 mi NE 9.2 mph - N/A   Mostly Cloudy
2:55 AM 32.0 °F 25.6 °F 30.2 °F 93% 30.34 in 7.0 mi NE 6.9 mph - N/A   Clear
3:15 AM 32.0 °F 25.6 °F 30.2 °F 93% 30.34 in 7.0 mi NE 6.9 mph - N/A   Clear
3:35 AM 32.0 °F 24.8 °F 30.2 °F 93% 30.33 in 10.0 mi NE 8.1 mph - N/A   Clear
3:55 AM 32.0 °F 24.2 °F 30.2 °F 93% 30.32 in 10.0 mi NE 9.2 mph - N/A   Clear
4:15 AM 32.0 °F 24.8 °F 30.2 °F 93% 30.32 in 10.0 mi NE 8.1 mph - N/A   Scattered Clouds
4:35 AM 32.0 °F 23.6 °F 28.4 °F 87% 30.32 in 10.0 mi NNE 10.4 mph - N/A   Mostly Cloudy
4:55 AM 32.0 °F 24.2 °F 28.4 °F 87% 30.32 in 10.0 mi NE 9.2 mph - N/A   Mostly Cloudy
5:15 AM 32.0 °F 24.2 °F 26.6 °F 80% 30.30 in 10.0 mi NE 9.2 mph 16.1 mph N/A   Scattered Clouds
5:35 AM 32.0 °F 22.5 °F 26.6 °F 80% 30.30 in 10.0 mi NE 12.7 mph 18.4 mph N/A   Scattered Clouds
5:55 AM 32.0 °F 23.0 °F 24.8 °F 75% 30.30 in 10.0 mi NE 11.5 mph - N/A   Overcast
6:15 AM 32.0 °F 23.0 °F 24.8 °F 75% 30.31 in 10.0 mi NE 11.5 mph - N/A   Overcast
6:35 AM 32.0 °F 22.5 °F 24.8 °F 75% 30.32 in 10.0 mi NE 12.7 mph - N/A   Overcast
6:55 AM 32.0 °F 24.2 °F 23.0 °F 69% 30.34 in 10.0 mi NE 9.2 mph - N/A   Overcast
7:15 AM 30.2 °F 20.8 °F 23.0 °F 75% 30.35 in 10.0 mi NE 11.5 mph - N/A   Overcast
7:35 AM 30.2 °F 21.3 °F 23.0 °F 75% 30.35 in 10.0 mi NE 10.4 mph - N/A   Overcast
7:55 AM 30.2 °F 22.6 °F 23.0 °F 75% 30.35 in 10.0 mi ENE 8.1 mph - N/A   Overcast
8:15 AM 30.2 °F 20.2 °F 23.0 °F 75% 30.36 in 2.5 mi ENE 12.7 mph 18.4 mph N/A Snow Light Snow
8:35 AM 28.4 °F 18.5 °F 24.8 °F 86% 30.36 in 2.5 mi NE 11.5 mph 16.1 mph N/A Snow Light Snow
8:55 AM 28.4 °F 19.7 °F 26.6 °F 93% 30.36 in 0.8 mi NE 9.2 mph - N/A Snow Light Snow
9:15 AM 28.4 °F 18.5 °F 26.6 °F 93% 30.36 in 0.5 mi NNE 11.5 mph - 0.01 in Snow Light Snow
9:35 AM 28.4 °F 16.2 °F 26.6 °F 93% 30.35 in 0.5 mi NE 17.3 mph 21.9 mph 0.02 in Snow Snow
9:55 AM 28.4 °F 18.0 °F 26.6 °F 93% 30.32 in 0.5 mi NE 12.7 mph 19.6 mph 0.03 in Snow Snow
10:15 AM 28.4 °F 17.5 °F 28.4 °F 100% 30.30 in 0.5 mi NE 13.8 mph - 0.02 in Snow Snow
10:35 AM 28.4 °F 19.1 °F 28.4 °F 100% 30.28 in 0.8 mi NNE 10.4 mph - 0.04 in Snow Light Snow
10:55 AM 28.4 °F 18.0 °F 28.4 °F 100% 30.29 in 1.2 mi NNE 12.7 mph - 0.06 in Snow Light Snow
11:15 AM 28.4 °F 17.0 °F 26.6 °F 93% 30.28 in 1.2 mi NE 15.0 mph 20.7 mph 0.01 in Snow Light Snow
11:35 AM 28.4 °F 17.5 °F 26.6 °F 93% 30.28 in 1.0 mi NE 13.8 mph 21.9 mph 0.02 in Snow Light Snow
11:55 AM 28.4 °F 17.5 °F 26.6 °F 93% 30.27 in 0.8 mi NE 13.8 mph 19.6 mph 0.04 in Snow Light Snow
12:15 PM 28.4 °F 18.5 °F 28.4 °F 100% 30.25 in 1.5 mi NNE 11.5 mph 16.1 mph 0.03 in Snow Light Snow
12:35 PM 28.4 °F 17.0 °F 28.4 °F 100% 30.23 in 2.5 mi NNE 15.0 mph 18.4 mph 0.06 in Snow Light Snow
12:55 PM 28.4 °F 17.5 °F 26.6 °F 93% 30.21 in 2.5 mi NNE 13.8 mph 23.0 mph 0.08 in Snow Light Snow
1:15 PM 28.4 °F 17.5 °F 26.6 °F 93% 30.21 in 2.5 mi NNE 13.8 mph 24.2 mph 0.01 in Snow Light Snow
1:35 PM 28.4 °F 18.0 °F 26.6 °F 93% 30.19 in 1.8 mi NE 12.7 mph - 0.03 in Snow Light Snow
1:55 PM 28.4 °F 17.5 °F 26.6 °F 93% 30.16 in 4.0 mi NE 13.8 mph 25.3 mph 0.05 in Snow Light Snow
2:15 PM 28.4 °F 16.6 °F 26.6 °F 93% 30.14 in 4.0 mi NNE 16.1 mph 23.0 mph N/A Snow Light Snow
2:35 PM 28.4 °F 18.0 °F 26.6 °F 93% 30.12 in 3.0 mi NNE 12.7 mph - 0.01 in Snow Light Snow
2:55 PM 28.4 °F 16.2 °F 26.6 °F 93% 30.10 in 1.8 mi NNE 17.3 mph 20.7 mph 0.02 in Snow Light Snow
3:15 PM 28.4 °F 16.6 °F 26.6 °F 93% 30.08 in 2.0 mi NNE 16.1 mph 23.0 mph N/A Snow Light Snow
3:35 PM 28.4 °F 17.0 °F 26.6 °F 93% 30.06 in 3.0 mi NNE 15.0 mph 23.0 mph N/A Snow Light Snow
3:55 PM 28.4 °F 16.6 °F 26.6 °F 93% 30.05 in 2.5 mi NNE 16.1 mph 27.6 mph N/A Snow Light Snow
4:15 PM 28.4 °F 16.6 °F 26.6 °F 93% 30.05 in 2.0 mi NNE 16.1 mph - N/A Snow Light Snow
4:35 PM 28.4 °F 16.2 °F 26.6 °F 93% 30.03 in 2.0 mi NNE 17.3 mph 23.0 mph N/A Snow Light Snow
4:55 PM 28.4 °F 18.0 °F 28.4 °F 100% 30.02 in 2.5 mi NNE 12.7 mph 20.7 mph N/A   Light Freezing Rain
5:15 PM 28.4 °F 17.0 °F 28.4 °F 100% 30.00 in 2.5 mi NNE 15.0 mph 20.7 mph N/A   Light Freezing Rain
5:35 PM 28.4 °F 17.0 °F 28.4 °F 100% 30.01 in 4.0 mi NNE 15.0 mph 21.9 mph N/A   Light Freezing Rain
5:55 PM 28.4 °F 16.2 °F 28.4 °F 100% 29.99 in 5.0 mi NNE 17.3 mph 24.2 mph N/A   Light Freezing Rain
6:15 PM 28.4 °F 17.0 °F 28.4 °F 100% 29.98 in 4.0 mi NNE 15.0 mph 20.7 mph N/A Snow Snow
6:35 PM 28.4 °F 17.0 °F 28.4 °F 100% 29.97 in 5.0 mi NNE 15.0 mph 21.9 mph N/A Snow Light Snow
6:55 PM 28.4 °F 18.0 °F 28.4 °F 100% 29.97 in 4.0 mi NNE 12.7 mph - 0.01 in Snow Light Snow
7:15 PM 30.2 °F 20.2 °F 28.4 °F 93% 29.97 in 3.0 mi NE 12.7 mph 19.6 mph 0.01 in Rain Light Freezing Rain
7:35 PM 28.4 °F 17.0 °F 28.4 °F 100% 29.96 in 2.5 mi NE 15.0 mph - 0.03 in Snow Light Snow
7:55 PM 28.4 °F 18.0 °F 28.4 °F 100% 29.93 in 2.5 mi NNE 12.7 mph - 0.04 in Snow Light Snow
8:15 PM 28.4 °F 18.5 °F 28.4 °F 100% 29.93 in 2.5 mi NE 11.5 mph - N/A Rain Light Freezing Rain
8:35 PM 28.4 °F 18.5 °F 28.4 °F 100% 29.91 in 2.5 mi NE 11.5 mph - N/A Snow Light Snow
8:55 PM 30.2 °F 21.3 °F 28.4 °F 93% 29.90 in 4.0 mi NNE 10.4 mph - N/A Snow Light Snow
9:15 PM 30.2 °F 20.2 °F 30.2 °F 100% 29.88 in 2.5 mi NE 12.7 mph - 0.01 in Snow Light Snow
9:35 PM 30.2 °F 19.8 °F 30.2 °F 100% 29.87 in 2.5 mi NNE 13.8 mph 19.6 mph 0.04 in   Overcast
9:55 PM 30.2 °F 20.2 °F 30.2 °F 100% 29.87 in 2.5 mi NNE 12.7 mph - 0.07 in Snow Light Snow
10:15 PM 30.2 °F 21.3 °F 30.2 °F 100% 29.85 in 1.2 mi North 10.4 mph - 0.04 in Snow Light Snow
10:35 PM 30.2 °F 22.6 °F 30.2 °F 100% 29.84 in 1.0 mi NNE 8.1 mph - 0.09 in Snow Light Snow
10:55 PM 30.2 °F 23.4 °F 30.2 °F 100% 29.82 in 1.8 mi North 6.9 mph - 0.11 in Snow Light Snow
11:15 PM 30.2 °F 23.4 °F 30.2 °F 100% 29.80 in 1.0 mi North 6.9 mph - 0.01 in Snow Light Snow
11:35 PM 32.0 °F 24.8 °F 32.0 °F 100% 29.81 in 2.0 mi North 8.1 mph - 0.03 in Snow Light Snow
11:55 PM 32.0 °F 22.1 °F 32.0 °F 100% 29.78 in 3.0 mi NNE 13.8 mph - 0.05 in Rain Light Rain